Regional Weather Roundup
Issued by NWS Albany, NY

Home | Current Version | Previous Version | Graphics & Text | Print | Product List | Glossary On
Versions: 1 2 3 4 5 6 7 8 9 10 11 12 13 14 15 16 17 18 19 20 21 22 23 24 25 26 27 28 29 30 31 32 33 34 35 36 37 38 39 40 41 42 43 44 45 46 47 48 49 50
000
ASUS41 KALY 271510
RWRALY

NEW YORK STATE HOURLY WEATHER ROUNDUP
NATIONAL WEATHER SERVICE ALBANY NY
1100 AM EDT SAT MAY 27 2017

NOTE: "FAIR" INDICATES FEW OR NO CLOUDS BELOW 12,000 FEET WITH NO
SIGNIFICANT WEATHER AND/OR NO OBSTRUCTIONS TO VISIBILITY.

NYZ032-033-038>043-046>054-057>066-NYZ062>081-082-084-271600-
EAST


CITY           SKY/WX    TMP DP  RH WIND       PRES   REMARKS
ALBANY         PTSUNNY   60  49  66 E6        29.91S
GLENS FALLS    CLOUDY    61  48  63 W5        29.90
POUGHKEEPSIE   MOSUNNY   64  53  67 VRB3      29.87S
NEWBURGH       PTSUNNY   66  55  68 CALM      29.89S
MONTGOMERY     CLOUDY    68  54  60 VRB3      29.86F
WHITE PLAINS   MOSUNNY   70  54  56 VRB6      29.86F
ISLIP          PTSUNNY   69  54  58 N10       29.87S
NEW YORK CITY  PTSUNNY   71  53  52 NW5       29.86F
CENTRAL PARK   PTSUNNY   68  54  60 VRB5      29.90F
$$

NYZ005>009-017-018-044>046-055-056-271600-
CENTRAL


CITY           SKY/WX    TMP DP  RH WIND       PRES   REMARKS
FULTON         CLOUDY    59  56  89 CALM      29.91R
SYRACUSE       LGT RAIN  58  56  93 VRB3      29.90S
ROME           CLOUDY    61  51  70 CALM      29.90S
ELMIRA         CLOUDY    64  54  69 SW5       29.90S
BINGHAMTON     CLOUDY    58  54  86 W5        29.91S
MONTICELLO     CLOUDY    61  54  77 N6        29.91S
$$

NYZ026>034-041>043-087-271600-
NORTH


CITY           SKY/WX    TMP DP  RH WIND       PRES   REMARKS
WATERTOWN      CLOUDY    65  50  58 NE7       29.90S
FORT DRUM      NOT AVBL
OGDENSBURG     FAIR      64  50  60 CALM      29.91S
MASSENA        PTSUNNY   65  51  60 W7        29.91S
SARANAC LAKE   CLOUDY    56  49  77 VRB3      29.90S
PLATTSBURGH    SUNNY     62  48  60 E6        29.90S
$$

NYZ001>004-010>016-019>021-085-271600-
WEST


CITY           SKY/WX    TMP DP  RH WIND       PRES   REMARKS
NIAGARA FALLS  CLOUDY    63  54  72 CALM      29.91S
BUFFALO        CLOUDY    59  53  80 W6        29.92S
DUNKIRK        CLOUDY    62  54  74 NW8       29.92S
JAMESTOWN      PTSUNNY   59  52  77 SE3       29.93S
WELLSVILLE     CLOUDY    61  50  67 CALM      29.94R
ROCHESTER      CLOUDY    62  56  80 W5        29.91S
PENN YAN       CLOUDY    62  53  72 NW3       29.92R
$$

             KEY
       WCI = WIND CHILL INDEX
       VSB = VISIBILITY
       HX  = HEAT INDEX
$$



USA.gov is the U.S. government's official web portal to all federal, state and local government web resources and services.